• In Österreich
  • Länderverzeichnis
  • Für 7 Tage
  • Wassertemperatur
  • Satellitenkarten
  • Wetterkarte
  • News
  • Widgets
  • user-avatar
    Anmelden

    Stündliche Wetter Bachawalpur

    Heute, 21 Oktober, Sonntag

    Zeit Temperatur Niederschläge Wind Luftdruck Luftfeuchtigkeit
    00:00 +26°C° 0 mm 2 m/S 750 mmHg 18%
    01:00 +26°C° 0 mm 2 m/S 750 mmHg 19%
    02:00 +25°C° 0 mm 2 m/S 750 mmHg 19%
    03:00 +25°C° 0 mm 2 m/S 750 mmHg 20%
    04:00 +25°C° 0 mm 2 m/S 750 mmHg 20%
    05:00 +24°C° 0 mm 2 m/S 750 mmHg 21%
    06:00 +26°C° 0 mm 1 m/S 751 mmHg 20%
    07:00 +27°C° 0 mm 1 m/S 751 mmHg 18%
    08:00 +28°C° 0 mm 1 m/S 752 mmHg 17%
    09:00 +30°C° 0 mm 1 m/S 752 mmHg 15%
    10:00 +32°C° 0 mm 1 m/S 752 mmHg 13%
    11:00 +32°C° 0 mm 0 m/S 752 mmHg 12%
    12:00 +32°C° 0 mm 0 m/S 752 mmHg 11%
    13:00 +35°C° 0 mm 1 m/S 751 mmHg 11%
    14:00 +36°C° 0 mm 1 m/S 751 mmHg 10%
    15:00 +35°C° 0 mm 1 m/S 750 mmHg 11%
    16:00 +34°C° 0 mm 1 m/S 750 mmHg 11%
    17:00 +30°C° 0 mm 0 m/S 750 mmHg 14%
    18:00 +31°C° 0 mm 1 m/S 750 mmHg 15%
    19:00 +30°C° 0 mm 1 m/S 750 mmHg 15%
    20:00 +29°C° 0 mm 1 m/S 750 mmHg 16%
    21:00 +28°C° 0 mm 1 m/S 751 mmHg 16%
    22:00 +28°C° 0 mm 1 m/S 751 mmHg 17%
    23:00 +27°C° 0 mm 1 m/S 751 mmHg 17%

    Morgen, 22 Oktober, Montag

    Zeit Temperatur Niederschläge Wind Luftdruck Luftfeuchtigkeit
    00:00 +27°C° 0 mm 1 m/S 750 mmHg 18%
    01:00 +26°C° 0 mm 1 m/S 750 mmHg 19%
    02:00 +26°C° 0 mm 1 m/S 750 mmHg 19%
    03:00 +25°C° 0 mm 1 m/S 750 mmHg 20%
    04:00 +24°C° 0 mm 1 m/S 750 mmHg 21%
    05:00 +21°C° 0 mm 0 m/S 750 mmHg 22%
    06:00 +23°C° 0 mm 0 m/S 750 mmHg 20%
    07:00 +25°C° 0 mm 0 m/S 750 mmHg 18%
    08:00 +26°C° 0 mm 0 m/S 751 mmHg 17%
    09:00 +30°C° 0 mm 1 m/S 751 mmHg 15%
    10:00 +34°C° 0 mm 2 m/S 751 mmHg 13%
    11:00 +36°C° 0 mm 2 m/S 751 mmHg 11%
    12:00 +36°C° 0 mm 2 m/S 750 mmHg 10%
    13:00 +37°C° 0 mm 2 m/S 749 mmHg 9%
    14:00 +38°C° 0 mm 3 m/S 748 mmHg 8%
    15:00 +37°C° 0 mm 2 m/S 748 mmHg 8%
    16:00 +36°C° 0 mm 2 m/S 748 mmHg 9%
    17:00 +34°C° 0 mm 1 m/S 748 mmHg 9%
    18:00 +34°C° 0 mm 2 m/S 748 mmHg 10%
    19:00 +31°C° 0 mm 2 m/S 748 mmHg 10%
    20:00 +30°C° 0 mm 2 m/S 748 mmHg 11%
    21:00 +29°C° 0 mm 2 m/S 748 mmHg 11%
    22:00 +29°C° 0 mm 2 m/S 748 mmHg 12%
    23:00 +28°C° 0 mm 2 m/S 748 mmHg 12%

    übermorgen, 23 Oktober, Dienstag

    Zeit Temperatur Niederschläge Wind Luftdruck Luftfeuchtigkeit
    00:00 +27°C° 0 mm 2 m/S 748 mmHg 13%
    01:00 +26°C° 0 mm 2 m/S 748 mmHg 13%
    02:00 +26°C° 0 mm 1 m/S 748 mmHg 14%
    03:00 +25°C° 0 mm 1 m/S 748 mmHg 15%
    04:00 +25°C° 0 mm 2 m/S 748 mmHg 15%
    05:00 +24°C° 0 mm 2 m/S 747 mmHg 15%
    06:00 +25°C° 0 mm 2 m/S 748 mmHg 15%
    07:00 +26°C° 0 mm 2 m/S 748 mmHg 14%
    08:00 +27°C° 0 mm 2 m/S 749 mmHg 13%
    09:00 +30°C° 0 mm 2 m/S 749 mmHg 12%
    10:00 +32°C° 0 mm 2 m/S 749 mmHg 10%
    11:00 +36°C° 0 mm 2 m/S 749 mmHg 9%
    12:00 +36°C° 0 mm 2 m/S 748 mmHg 8%
    13:00 +37°C° 0 mm 2 m/S 748 mmHg 8%
    14:00 +38°C° 0 mm 3 m/S 747 mmHg 8%
    15:00 +37°C° 0 mm 3 m/S 747 mmHg 9%
    16:00 +37°C° 0 mm 3 m/S 747 mmHg 9%
    17:00 +36°C° 0 mm 3 m/S 747 mmHg 10%
    18:00 +34°C° 0 mm 3 m/S 747 mmHg 11%
    19:00 +31°C° 0 mm 3 m/S 747 mmHg 12%
    20:00 +29°C° 0 mm 3 m/S 748 mmHg 13%
    21:00 +28°C° 0 mm 4 m/S 748 mmHg 14%
    22:00 +28°C° 0 mm 4 m/S 748 mmHg 16%
    23:00 +27°C° 0 mm 4 m/S 748 mmHg 17%

    24 Oktober, Mittwoch

    Zeit Temperatur Niederschläge Wind Luftdruck Luftfeuchtigkeit
    00:00 +26°C° 0 mm 4 m/S 748 mmHg 18%
    01:00 +25°C° 0 mm 4 m/S 748 mmHg 19%
    02:00 +25°C° 0 mm 4 m/S 748 mmHg 20%
    03:00 +23°C° 0 mm 4 m/S 748 mmHg 21%
    04:00 +22°C° 0 mm 4 m/S 748 mmHg 22%
    05:00 +22°C° 0 mm 4 m/S 748 mmHg 23%
    06:00 +22°C° 0 mm 4 m/S 749 mmHg 22%
    07:00 +23°C° 0 mm 4 m/S 749 mmHg 22%
    08:00 +25°C° 0 mm 4 m/S 750 mmHg 22%
    09:00 +28°C° 0 mm 4 m/S 750 mmHg 19%
    10:00 +30°C° 0 mm 4 m/S 750 mmHg 17%
    11:00 +34°C° 0 mm 3 m/S 750 mmHg 14%
    12:00 +35°C° 0 mm 3 m/S 749 mmHg 13%
    13:00 +36°C° 0 mm 3 m/S 749 mmHg 11%
    14:00 +38°C° 0 mm 3 m/S 748 mmHg 10%
    15:00 +37°C° 0 mm 3 m/S 748 mmHg 11%
    16:00 +36°C° 0 mm 2 m/S 748 mmHg 11%
    17:00 +35°C° 0 mm 2 m/S 748 mmHg 12%
    18:00 +32°C° 0 mm 2 m/S 748 mmHg 13%
    19:00 +31°C° 0 mm 2 m/S 749 mmHg 14%
    20:00 +29°C° 0 mm 2 m/S 749 mmHg 15%
    21:00 +28°C° 0 mm 2 m/S 749 mmHg 16%
    22:00 +28°C° 0 mm 3 m/S 749 mmHg 16%
    23:00 +27°C° 0 mm 3 m/S 750 mmHg 17%

    25 Oktober, Donnerstag

    Zeit Temperatur Niederschläge Wind Luftdruck Luftfeuchtigkeit
    00:00 +26°C° 0 mm 3 m/S 749 mmHg 17%
    01:00 +26°C° 0 mm 3 m/S 749 mmHg 18%
    02:00 +25°C° 0 mm 3 m/S 749 mmHg 19%
    03:00 +24°C° 0 mm 3 m/S 749 mmHg 20%
    04:00 +24°C° 0 mm 3 m/S 749 mmHg 22%
    05:00 +22°C° 0 mm 3 m/S 750 mmHg 23%
    06:00 +24°C° 0 mm 3 m/S 750 mmHg 24%
    07:00 +25°C° 0 mm 3 m/S 751 mmHg 24%
    08:00 +26°C° 0 mm 4 m/S 751 mmHg 24%
    09:00 +29°C° 0 mm 3 m/S 751 mmHg 22%
    10:00 +31°C° 0 mm 3 m/S 751 mmHg 19%
    11:00 +35°C° 0 mm 3 m/S 751 mmHg 17%
    12:00 +36°C° 0 mm 2 m/S 751 mmHg 15%
    13:00 +37°C° 0 mm 2 m/S 750 mmHg 14%
    14:00 +38°C° 0 mm 2 m/S 749 mmHg 12%
    15:00 +36°C° 0 mm 1 m/S 749 mmHg 13%
    16:00 +35°C° 0 mm 1 m/S 749 mmHg 13%
    17:00 +34°C° 0 mm 1 m/S 749 mmHg 14%
    18:00 +33°C° 0 mm 1 m/S 750 mmHg 15%
    19:00 +31°C° 0 mm 1 m/S 750 mmHg 17%
    20:00 +30°C° 0 mm 2 m/S 750 mmHg 18%
    21:00 +29°C° 0 mm 2 m/S 751 mmHg 19%
    22:00 +28°C° 0 mm 2 m/S 751 mmHg 19%
    23:00 +28°C° 0 mm 3 m/S 751 mmHg 20%

    26 Oktober, Freitag

    Zeit Temperatur Niederschläge Wind Luftdruck Luftfeuchtigkeit
    00:00 +27°C° 0 mm 3 m/S 751 mmHg 20%
    01:00 +26°C° 0 mm 3 m/S 751 mmHg 21%
    02:00 +26°C° 0 mm 3 m/S 751 mmHg 21%
    03:00 +25°C° 0 mm 3 m/S 751 mmHg 22%
    04:00 +25°C° 0 mm 3 m/S 751 mmHg 22%
    05:00 +24°C° 0 mm 3 m/S 751 mmHg 23%
    06:00 +25°C° 0 mm 3 m/S 752 mmHg 22%
    07:00 +26°C° 0 mm 3 m/S 752 mmHg 20%
    08:00 +27°C° 0 mm 3 m/S 753 mmHg 19%
    09:00 +29°C° 0 mm 3 m/S 753 mmHg 17%
    10:00 +32°C° 0 mm 2 m/S 753 mmHg 15%
    11:00 +35°C° 0 mm 2 m/S 753 mmHg 13%
    12:00 +36°C° 0 mm 2 m/S 752 mmHg 13%
    13:00 +37°C° 0 mm 2 m/S 751 mmHg 12%
    14:00 +38°C° 0 mm 2 m/S 751 mmHg 11%
    15:00 +37°C° 0 mm 2 m/S 751 mmHg 12%
    16:00 +35°C° 0 mm 1 m/S 750 mmHg 12%
    17:00 +35°C° 0 mm 1 m/S 750 mmHg 13%
    18:00 +33°C° 0 mm 1 m/S 751 mmHg 15%
    19:00 +31°C° 0 mm 1 m/S 751 mmHg 16%
    20:00 +29°C° 0 mm 1 m/S 751 mmHg 18%
    21:00 +28°C° 0 mm 1 m/S 751 mmHg 18%
    22:00 +28°C° 0 mm 2 m/S 752 mmHg 18%
    23:00 +27°C° 0 mm 2 m/S 752 mmHg 19%
    Mehr zeigen